Radiation Dose at Monitoring Post of Fukushima Daini Nuclear Power Station
Date,Time,MP-1(microSv/h),MP-2(microSv/h),MP-3(microSv/h),MP-4(microSv/h),MP-5(microSv/h),MP-6(microSv/h),MP-7(microSv/h),Wind Direction,Wind Velocity(m/s),Rain
2014/11/02,00:00,0.607,0.419,0.640,0.580,0.582,0.271,0.235,southwest,1.5,Yes
2014/11/02,00:10,0.602,0.418,0.635,0.576,0.582,0.269,0.235,west-southwest,2.2,Yes
2014/11/02,00:20,0.600,0.417,0.631,0.573,0.581,0.269,0.233,west,1.9,Yes
2014/11/02,00:30,0.599,0.416,0.630,0.568,0.578,0.267,0.233,west-southwest,2.7,Yes
2014/11/02,00:40,0.594,0.413,0.627,0.567,0.575,0.266,0.230,west,3.3,Yes
2014/11/02,00:50,0.593,0.416,0.627,0.566,0.579,0.266,0.232,west-southwest,6.1,Yes
2014/11/02,01:00,0.590,0.413,0.623,0.562,0.577,0.264,0.232,north-northeast,5.0,Yes
2014/11/02,01:10,0.591,0.414,0.624,0.561,0.578,0.265,0.232,west-northwest,3.1,Yes
2014/11/02,01:20,0.591,0.414,0.626,0.564,0.579,0.266,0.234,northwest,3.1,Yes
2014/11/02,01:30,0.594,0.415,0.628,0.566,0.580,0.267,0.233,west-northwest,2.2,Yes
2014/11/02,01:40,0.592,0.416,0.628,0.567,0.581,0.266,0.234,northwest,1.7,Yes
2014/11/02,01:50,0.594,0.416,0.629,0.568,0.581,0.266,0.233,northwest,2.0,Yes
2014/11/02,02:00,0.594,0.416,0.630,0.571,0.582,0.265,0.233,northwest,2.1,Yes
2014/11/02,02:10,0.597,0.416,0.631,0.571,0.582,0.265,0.233,northwest,2.0,Yes
2014/11/02,02:20,0.596,0.415,0.632,0.572,0.581,0.264,0.233,northwest,2.2,No
2014/11/02,02:30,0.594,0.416,0.632,0.574,0.583,0.265,0.231,west-northwest,1.7,Yes
2014/11/02,02:40,0.595,0.415,0.632,0.571,0.582,0.263,0.232,west,2.8,Yes
2014/11/02,02:50,0.595,0.415,0.629,0.570,0.579,0.264,0.229,northwest,2.5,Yes
2014/11/02,03:00,0.592,0.412,0.623,0.566,0.576,0.263,0.230,north,3.2,Yes
2014/11/02,03:10,0.589,0.411,0.623,0.564,0.576,0.262,0.229,north,1.8,Yes
2014/11/02,03:20,0.593,0.411,0.623,0.562,0.577,0.263,0.229,northwest,1.7,Yes
2014/11/02,03:30,0.588,0.411,0.624,0.562,0.576,0.262,0.228,north-northwest,1.5,Yes
2014/11/02,03:40,0.590,0.411,0.624,0.565,0.578,0.260,0.228,northwest,1.5,Yes
2014/11/02,03:50,0.589,0.412,0.624,0.565,0.578,0.262,0.228,north-northwest,1.9,Yes
2014/11/02,04:00,0.589,0.410,0.627,0.566,0.577,0.261,0.227,north-northwest,0.9,Yes
2014/11/02,04:10,0.592,0.410,0.626,0.567,0.577,0.262,0.229,northwest,0.7,Yes
2014/11/02,04:20,0.591,0.412,0.626,0.566,0.577,0.261,0.228,west-northwest,0.7,Yes
2014/11/02,04:30,0.591,0.413,0.627,0.568,0.579,0.262,0.229,-,CALM,Yes
2014/11/02,04:40,0.592,0.413,0.627,0.569,0.578,0.263,0.228,south,0.6,Yes
2014/11/02,04:50,0.593,0.413,0.627,0.570,0.580,0.262,0.230,southeast,0.8,No
2014/11/02,05:00,0.593,0.413,0.629,0.569,0.578,0.262,0.228,southeast,1.3,No
2014/11/02,05:10,0.593,0.413,0.630,0.572,0.579,0.262,0.229,south-southwest,0.9,No
2014/11/02,05:20,0.593,0.412,0.630,0.572,0.577,0.262,0.228,west-southwest,1.3,No
2014/11/02,05:30,0.593,0.412,0.630,0.570,0.579,0.262,0.228,-,CALM,No
2014/11/02,05:40,0.593,0.414,0.629,0.570,0.579,0.263,0.227,north-northwest,0.7,No
2014/11/02,05:50,0.593,0.414,0.632,0.574,0.578,0.261,0.228,north-northwest,0.9,No
2014/11/02,06:00,0.594,0.412,0.631,0.572,0.578,0.262,0.228,northwest,1.6,No
2014/11/02,06:10,0.594,0.412,0.630,0.569,0.578,0.261,0.229,north-northwest,2.1,No
2014/11/02,06:20,0.594,0.412,0.631,0.571,0.578,0.264,0.228,north-northwest,2.2,No
2014/11/02,06:30,0.594,0.412,0.631,0.574,0.579,0.260,0.227,north,1.6,No
2014/11/02,06:40,0.594,0.413,0.631,0.573,0.580,0.263,0.228,north,1.6,No
2014/11/02,06:50,0.597,0.412,0.631,0.572,0.581,0.262,0.228,north,1.1,No
2014/11/02,07:00,0.596,0.414,0.630,0.573,0.579,0.263,0.229,northwest,0.5,No
2014/11/02,07:10,0.597,0.412,0.630,0.571,0.578,0.262,0.228,-,CALM,No
2014/11/02,07:20,0.596,0.415,0.630,0.572,0.580,0.263,0.228,northeast,1.2,No
2014/11/02,07:30,0.596,0.414,0.634,0.572,0.582,0.262,0.228,east-northeast,1.4,No
2014/11/02,07:40,0.596,0.414,0.633,0.574,0.581,0.264,0.229,northeast,1.5,No
2014/11/02,07:50,0.598,0.414,0.632,0.574,0.581,0.262,0.228,northeast,0.7,No
2014/11/02,08:00,0.597,0.416,0.634,0.575,0.581,0.264,0.230,-,CALM,No
2014/11/02,08:10,0.598,0.415,0.632,0.574,0.582,0.262,0.230,-,CALM,No
2014/11/02,08:20,0.599,0.416,0.634,0.576,0.581,0.262,0.229,northwest,0.6,No
2014/11/02,08:30,0.599,0.416,0.634,0.576,0.580,0.263,0.230,west-northwest,1.2,No
2014/11/02,08:40,0.599,0.415,0.635,0.577,0.581,0.261,0.229,-,CALM,No
2014/11/02,08:50,0.597,0.417,0.634,0.577,0.581,0.263,0.230,-,CALM,No
2014/11/02,09:00,0.599,0.415,0.635,0.578,0.582,0.263,0.230,east-southeast,1.1,No
2014/11/02,09:10,0.600,0.417,0.634,0.579,0.583,0.264,0.230,south-southeast,1.6,No
2014/11/02,09:20,0.598,0.416,0.635,0.578,0.584,0.261,0.230,south-southeast,1.9,No
2014/11/02,09:30,0.599,0.417,0.635,0.577,0.584,0.262,0.229,south-southeast,1.9,No
2014/11/02,09:40,0.601,0.416,0.633,0.578,0.583,0.263,0.231,south,2.7,No
2014/11/02,09:50,0.599,0.417,0.636,0.580,0.584,0.263,0.230,south-southwest,2.2,No
2014/11/02,10:00,0.599,0.418,0.634,0.581,0.585,0.265,0.228,south,2.6,No
2014/11/02,10:10,0.603,0.417,0.634,0.581,0.586,0.264,0.231,south-southeast,2.7,No
2014/11/02,10:20,0.602,0.418,0.635,0.580,0.587,0.263,0.231,south-southeast,2.5,No
2014/11/02,10:30,0.603,0.420,0.636,0.584,0.585,0.263,0.229,southeast,2.4,No
2014/11/02,10:40,0.603,0.418,0.635,0.584,0.587,0.262,0.231,south-southeast,2.5,No
2014/11/02,10:50,0.603,0.421,0.634,0.583,0.587,0.265,0.230,south-southeast,3.1,No
2014/11/02,11:00,0.603,0.420,0.636,0.583,0.586,0.263,0.230,south-southeast,3.0,No
2014/11/02,11:10,0.604,0.420,0.638,0.587,0.586,0.263,0.231,south-southeast,2.8,No
2014/11/02,11:20,0.603,0.419,0.637,0.585,0.588,0.264,0.230,south,3.1,No
2014/11/02,11:30,0.605,0.421,0.638,0.585,0.587,0.264,0.230,south,3.6,No
2014/11/02,11:40,0.604,0.420,0.637,0.585,0.586,0.264,0.232,south,3.6,No
2014/11/02,11:50,0.604,0.421,0.638,0.585,0.588,0.263,0.229,south,3.1,No
2014/11/02,12:00,0.602,0.420,0.637,0.585,0.585,0.262,0.230,south,4.2,No
2014/11/02,12:10,0.605,0.421,0.637,0.585,0.588,0.264,0.231,south-southwest,4.9,No
2014/11/02,12:20,0.606,0.421,0.637,0.585,0.589,0.265,0.229,south,4.4,No
2014/11/02,12:30,0.607,0.422,0.640,0.589,0.588,0.264,0.230,south,6.4,No
2014/11/02,12:40,0.608,0.422,0.639,0.590,0.589,0.264,0.230,south,7.9,No
2014/11/02,12:50,0.606,0.423,0.641,0.588,0.587,0.265,0.230,south,8.9,No
2014/11/02,13:00,0.607,0.423,0.641,0.591,0.589,0.264,0.229,south,9.7,No
2014/11/02,13:10,0.608,0.422,0.641,0.593,0.588,0.265,0.232,south,10.7,No
2014/11/02,13:20,0.607,0.423,0.642,0.592,0.587,0.266,0.229,south,10.6,No
2014/11/02,13:30,0.608,0.423,0.641,0.593,0.587,0.264,0.230,south,8.5,No
2014/11/02,13:40,0.608,0.422,0.644,0.592,0.588,0.264,0.231,south,9.0,No
2014/11/02,13:50,0.610,0.422,0.644,0.591,0.586,0.265,0.229,south,7.0,No
2014/11/02,14:00,0.606,0.421,0.644,0.592,0.586,0.265,0.231,south,7.3,No
2014/11/02,14:10,0.607,0.423,0.641,0.590,0.585,0.265,0.231,south-southwest,5.7,No
2014/11/02,14:20,0.607,0.422,0.642,0.589,0.587,0.264,0.230,south,5.6,No
2014/11/02,14:30,0.608,0.423,0.643,0.590,0.587,0.264,0.231,south,7.8,No
2014/11/02,14:40,0.606,0.422,0.642,0.591,0.588,0.265,0.230,south-southwest,7.5,No
2014/11/02,14:50,0.607,0.422,0.643,0.591,0.587,0.264,0.230,south,6.3,No
2014/11/02,15:00,0.608,0.423,0.643,0.590,0.586,0.268,0.232,south,6.9,No
2014/11/02,15:10,0.609,0.422,0.643,0.590,0.587,0.266,0.230,south,6.4,No
2014/11/02,15:20,0.608,0.421,0.643,0.589,0.586,0.265,0.232,south,6.6,No
2014/11/02,15:30,0.607,0.422,0.643,0.589,0.586,0.266,0.232,south,6.1,No
2014/11/02,15:40,0.607,0.421,0.641,0.592,0.586,0.264,0.229,south,6.6,No
2014/11/02,15:50,0.605,0.422,0.644,0.591,0.587,0.267,0.233,south,7.2,No
2014/11/02,16:00,0.605,0.421,0.641,0.586,0.588,0.265,0.231,south,8.2,No
2014/11/02,16:10,0.605,0.421,0.640,0.588,0.586,0.265,0.232,south,9.2,No
2014/11/02,16:20,0.604,0.421,0.640,0.587,0.587,0.265,0.232,south,8.7,No
2014/11/02,16:30,0.606,0.420,0.641,0.587,0.585,0.266,0.233,south-southwest,7.5,No
2014/11/02,16:40,0.605,0.421,0.641,0.586,0.584,0.267,0.231,south-southwest,7.1,No
2014/11/02,16:50,0.602,0.420,0.640,0.585,0.586,0.264,0.232,south-southwest,8.0,No
2014/11/02,17:00,0.602,0.421,0.640,0.585,0.584,0.267,0.231,south-southwest,8.7,No
2014/11/02,17:10,0.603,0.421,0.640,0.586,0.585,0.266,0.231,south-southwest,8.4,No
2014/11/02,17:20,0.604,0.419,0.639,0.588,0.584,0.266,0.233,south-southwest,7.3,No
2014/11/02,17:30,0.603,0.420,0.640,0.584,0.585,0.268,0.232,south-southwest,6.1,No
2014/11/02,17:40,0.600,0.420,0.641,0.584,0.584,0.267,0.232,south-southwest,5.7,No
2014/11/02,17:50,0.601,0.419,0.641,0.583,0.582,0.266,0.231,south-southwest,6.6,No
2014/11/02,18:00,0.600,0.421,0.640,0.583,0.585,0.266,0.233,south-southwest,5.9,No
2014/11/02,18:10,0.602,0.418,0.639,0.585,0.583,0.267,0.232,southwest,5.4,No
2014/11/02,18:20,0.602,0.418,0.640,0.582,0.585,0.266,0.232,southwest,3.9,No
2014/11/02,18:30,0.603,0.420,0.641,0.580,0.584,0.265,0.231,south-southwest,4.8,No
2014/11/02,18:40,0.603,0.418,0.639,0.582,0.582,0.268,0.231,south-southwest,6.0,No
2014/11/02,18:50,0.601,0.418,0.638,0.584,0.585,0.266,0.232,south-southwest,5.3,No
2014/11/02,19:00,0.600,0.420,0.640,0.583,0.584,0.268,0.233,southwest,4.6,No
2014/11/02,19:10,0.599,0.420,0.639,0.581,0.581,0.266,0.233,southwest,4.0,No
2014/11/02,19:20,0.601,0.419,0.639,0.581,0.581,0.267,0.232,southwest,3.8,No
2014/11/02,19:30,0.603,0.421,0.640,0.580,0.584,0.266,0.233,south-southwest,3.3,No
2014/11/02,19:40,0.601,0.419,0.640,0.581,0.586,0.267,0.232,south-southwest,2.9,No
2014/11/02,19:50,0.602,0.420,0.640,0.581,0.583,0.267,0.233,south-southwest,4.4,No
2014/11/02,20:00,0.602,0.420,0.640,0.579,0.583,0.266,0.232,south-southwest,4.5,No
2014/11/02,20:10,0.602,0.419,0.640,0.581,0.583,0.267,0.234,southwest,3.1,No
2014/11/02,20:20,0.603,0.419,0.640,0.581,0.585,0.266,0.231,west-southwest,2.6,No
2014/11/02,20:30,0.602,0.418,0.639,0.583,0.584,0.266,0.231,west-northwest,2.8,No
2014/11/02,20:40,0.602,0.419,0.639,0.583,0.583,0.266,0.231,northwest,3.6,No
2014/11/02,20:50,0.601,0.417,0.637,0.582,0.583,0.267,0.234,west-northwest,3.9,No
2014/11/02,21:00,0.603,0.419,0.639,0.582,0.583,0.267,0.232,west-northwest,3.6,No
2014/11/02,21:10,0.601,0.419,0.639,0.583,0.582,0.266,0.233,west,6.9,No
2014/11/02,21:20,0.601,0.420,0.641,0.582,0.582,0.268,0.231,west,6.4,No
2014/11/02,21:30,0.602,0.420,0.639,0.582,0.581,0.267,0.232,west-northwest,3.1,No
2014/11/02,21:40,0.602,0.420,0.640,0.584,0.585,0.268,0.232,northwest,1.3,No
2014/11/02,21:50,0.603,0.418,0.642,0.584,0.582,0.267,0.233,west-northwest,2.8,No
2014/11/02,22:00,0.602,0.420,0.639,0.585,0.583,0.268,0.232,west,5.6,No
2014/11/02,22:10,0.604,0.418,0.641,0.581,0.582,0.266,0.233,west,4.1,No
2014/11/02,22:20,0.604,0.420,0.641,0.584,0.582,0.268,0.231,west-northwest,5.4,No
2014/11/02,22:30,0.603,0.419,0.640,0.584,0.583,0.266,0.233,west,5.3,No
2014/11/02,22:40,0.603,0.420,0.639,0.583,0.584,0.267,0.232,west,5.3,No
2014/11/02,22:50,0.601,0.419,0.640,0.584,0.583,0.269,0.233,west-southwest,1.1,No
2014/11/02,23:00,0.603,0.420,0.640,0.583,0.585,0.266,0.232,west-southwest,1.4,No
2014/11/02,23:10,0.604,0.419,0.640,0.584,0.583,0.267,0.232,southwest,2.2,No
2014/11/02,23:20,0.604,0.420,0.643,0.582,0.584,0.265,0.232,west-southwest,1.9,No
2014/11/02,23:30,0.601,0.420,0.642,0.582,0.584,0.268,0.232,west-northwest,0.9,No
2014/11/02,23:40,0.604,0.419,0.641,0.583,0.582,0.267,0.232,northwest,2.2,Yes
2014/11/02,23:50,0.602,0.421,0.642,0.584,0.583,0.267,0.232,west,2.8,Yes
